Year,Month,Day,Hour,Minute,Value (Times are PST for temperature in C)
2016,02,25,00,00,3.60
2016,02,25,00,01,3.60
2016,02,25,00,02,3.60
2016,02,25,00,03,3.60
2016,02,25,00,04,3.60
2016,02,25,00,05,3.50
2016,02,25,00,06,3.50
2016,02,25,00,07,3.50
2016,02,25,00,08,3.50
2016,02,25,00,09,3.50
2016,02,25,00,10,3.50
2016,02,25,00,11,3.50
2016,02,25,00,12,3.50
2016,02,25,00,13,3.50
2016,02,25,00,14,3.50
2016,02,25,00,15,3.50
2016,02,25,00,16,3.60
2016,02,25,00,17,3.60
2016,02,25,00,18,3.60
2016,02,25,00,19,3.60
2016,02,25,00,20,3.70
2016,02,25,00,21,3.70
2016,02,25,00,22,3.70
2016,02,25,00,23,3.70
2016,02,25,00,24,3.70
2016,02,25,00,25,3.80
2016,02,25,00,26,3.80
2016,02,25,00,27,3.80
2016,02,25,00,28,3.90
2016,02,25,00,29,4.00
2016,02,25,00,30,4.00
2016,02,25,00,31,4.00
2016,02,25,00,32,4.00
2016,02,25,00,33,3.90
2016,02,25,00,34,3.90
2016,02,25,00,35,3.80
2016,02,25,00,36,3.70
2016,02,25,00,37,3.70
2016,02,25,00,38,3.60
2016,02,25,00,39,3.60
2016,02,25,00,40,3.50
2016,02,25,00,41,3.50
2016,02,25,00,42,3.50
2016,02,25,00,43,3.50
2016,02,25,00,44,3.50
2016,02,25,00,45,3.60
2016,02,25,00,46,3.50
2016,02,25,00,47,3.50
2016,02,25,00,48,3.50
2016,02,25,00,49,3.40
2016,02,25,00,50,3.40
2016,02,25,00,51,3.40
2016,02,25,00,52,3.40
2016,02,25,00,53,3.50
2016,02,25,00,54,3.50
2016,02,25,00,55,3.60
2016,02,25,00,56,3.60
2016,02,25,00,57,3.70
2016,02,25,00,58,3.80
2016,02,25,00,59,3.80
2016,02,25,01,00,3.80
2016,02,25,01,01,3.80
2016,02,25,01,02,3.80
2016,02,25,01,03,3.80
2016,02,25,01,04,3.80
2016,02,25,01,05,3.80
2016,02,25,01,06,3.80
2016,02,25,01,07,3.80
2016,02,25,01,08,3.80
2016,02,25,01,09,3.80
2016,02,25,01,10,3.80
2016,02,25,01,11,3.80
2016,02,25,01,12,3.80
2016,02,25,01,13,3.70
2016,02,25,01,14,3.60
2016,02,25,01,15,3.50
2016,02,25,01,16,3.40
2016,02,25,01,17,3.30
2016,02,25,01,18,3.30
2016,02,25,01,19,3.20
2016,02,25,01,20,3.20
2016,02,25,01,21,3.20
2016,02,25,01,22,3.20
2016,02,25,01,23,3.20
2016,02,25,01,24,3.20
2016,02,25,01,25,3.30
2016,02,25,01,26,3.30
2016,02,25,01,27,3.30
2016,02,25,01,28,3.30
2016,02,25,01,29,3.30
2016,02,25,01,30,3.30
2016,02,25,01,31,3.40
2016,02,25,01,32,3.50
2016,02,25,01,33,3.50
2016,02,25,01,34,3.60
2016,02,25,01,35,3.60
2016,02,25,01,36,3.60
2016,02,25,01,37,3.70
2016,02,25,01,38,3.70
2016,02,25,01,39,3.70
2016,02,25,01,40,3.70
2016,02,25,01,41,3.70
2016,02,25,01,42,3.70
2016,02,25,01,43,3.70
2016,02,25,01,44,3.70
2016,02,25,01,45,3.70
2016,02,25,01,46,3.70
2016,02,25,01,47,3.70
2016,02,25,01,48,3.70
2016,02,25,01,49,3.80
2016,02,25,01,50,3.80
2016,02,25,01,51,3.80
2016,02,25,01,52,3.80
2016,02,25,01,53,3.80
2016,02,25,01,54,3.80
2016,02,25,01,55,3.80
2016,02,25,01,56,3.70
2016,02,25,01,57,3.70
2016,02,25,01,58,3.70
2016,02,25,01,59,3.70
2016,02,25,02,00,3.70
2016,02,25,02,01,3.70
2016,02,25,02,02,3.70
2016,02,25,02,03,3.70
2016,02,25,02,04,3.70
2016,02,25,02,05,3.70
2016,02,25,02,06,3.70
2016,02,25,02,07,3.70
2016,02,25,02,08,3.70
2016,02,25,02,09,3.70
2016,02,25,02,10,3.70
2016,02,25,02,11,3.70
2016,02,25,02,12,3.70
2016,02,25,02,13,3.70
2016,02,25,02,14,3.60
2016,02,25,02,15,3.60
2016,02,25,02,16,3.60
2016,02,25,02,17,3.60
2016,02,25,02,18,3.50
2016,02,25,02,19,3.50
2016,02,25,02,20,3.50
2016,02,25,02,21,3.60
2016,02,25,02,22,3.60
2016,02,25,02,23,3.60
2016,02,25,02,24,3.60
2016,02,25,02,25,3.60
2016,02,25,02,26,3.70
2016,02,25,02,27,3.70
2016,02,25,02,28,3.80
2016,02,25,02,29,3.80
2016,02,25,02,30,3.80
2016,02,25,02,31,3.70
2016,02,25,02,32,3.70
2016,02,25,02,33,3.60
2016,02,25,02,34,3.60
2016,02,25,02,35,3.60
2016,02,25,02,36,3.60
2016,02,25,02,37,3.60
2016,02,25,02,38,3.70
2016,02,25,02,39,3.70
2016,02,25,02,40,3.60
2016,02,25,02,41,3.60
2016,02,25,02,42,3.60
2016,02,25,02,43,3.60
2016,02,25,02,44,3.60
2016,02,25,02,45,3.50
2016,02,25,02,46,3.50
2016,02,25,02,47,3.50
2016,02,25,02,48,3.40
2016,02,25,02,49,3.40
2016,02,25,02,50,3.40
2016,02,25,02,51,3.40
2016,02,25,02,52,3.40
2016,02,25,02,53,3.40
2016,02,25,02,54,3.40
2016,02,25,02,55,3.50
2016,02,25,02,56,3.40
2016,02,25,02,57,3.40
2016,02,25,02,58,3.40
2016,02,25,02,59,3.30
2016,02,25,03,00,3.30
2016,02,25,03,01,3.20
2016,02,25,03,02,3.20
2016,02,25,03,03,3.10
2016,02,25,03,04,3.10
2016,02,25,03,05,3.10
2016,02,25,03,06,3.10
2016,02,25,03,07,3.10
2016,02,25,03,08,3.10
2016,02,25,03,09,3.10
2016,02,25,03,10,3.00
2016,02,25,03,11,2.70
2016,02,25,03,12,2.70
2016,02,25,03,13,2.70
2016,02,25,03,14,2.70
2016,02,25,03,15,2.70
2016,02,25,03,16,2.80
2016,02,25,03,17,2.80
2016,02,25,03,18,2.80
2016,02,25,03,19,2.80
2016,02,25,03,20,2.80
2016,02,25,03,21,2.80
2016,02,25,03,22,2.80
2016,02,25,03,23,2.80
2016,02,25,03,24,2.80
2016,02,25,03,25,2.90
2016,02,25,03,26,2.90
2016,02,25,03,27,2.90
2016,02,25,03,28,2.90
2016,02,25,03,29,2.90
2016,02,25,03,30,2.90
2016,02,25,03,31,2.90
2016,02,25,03,32,2.90
2016,02,25,03,33,2.90
2016,02,25,03,34,3.00
2016,02,25,03,35,3.00
2016,02,25,03,36,3.10
2016,02,25,03,37,3.10
2016,02,25,03,38,3.10
2016,02,25,03,39,3.10
2016,02,25,03,40,3.20
2016,02,25,03,41,3.20
2016,02,25,03,42,3.20
2016,02,25,03,43,3.20
2016,02,25,03,44,3.20
2016,02,25,03,45,3.20
2016,02,25,03,46,3.20
2016,02,25,03,47,3.10
2016,02,25,03,48,3.10
2016,02,25,03,49,3.10
2016,02,25,03,50,3.10
2016,02,25,03,51,3.10
2016,02,25,03,52,3.10
2016,02,25,03,53,3.00
2016,02,25,03,54,3.10
2016,02,25,03,55,3.00
2016,02,25,03,56,3.10
2016,02,25,03,57,3.10
2016,02,25,03,58,3.10
2016,02,25,03,59,3.10
2016,02,25,04,00,3.10
2016,02,25,04,01,3.20
2016,02,25,04,02,3.20
2016,02,25,04,03,3.20
2016,02,25,04,04,3.30
2016,02,25,04,05,3.30
2016,02,25,04,06,3.40
2016,02,25,04,07,3.50
2016,02,25,04,08,3.50
2016,02,25,04,09,3.60
2016,02,25,04,10,3.60
2016,02,25,04,11,3.60
2016,02,25,04,12,3.60
2016,02,25,04,13,3.50
2016,02,25,04,14,3.50
2016,02,25,04,15,3.40
2016,02,25,04,16,3.40
2016,02,25,04,17,3.40
2016,02,25,04,18,3.40
2016,02,25,04,19,3.30
2016,02,25,04,20,3.30
2016,02,25,04,21,3.30
2016,02,25,04,22,3.30
2016,02,25,04,23,3.20
2016,02,25,04,24,3.20
2016,02,25,04,25,3.10
2016,02,25,04,26,3.10
2016,02,25,04,27,3.10
2016,02,25,04,28,3.10
2016,02,25,04,29,3.10
2016,02,25,04,30,3.20
2016,02,25,04,31,3.20
2016,02,25,04,32,3.20
2016,02,25,04,33,3.20
2016,02,25,04,34,3.20
2016,02,25,04,35,3.30
2016,02,25,04,36,3.30
2016,02,25,04,37,3.30
2016,02,25,04,38,3.30
2016,02,25,04,39,3.30
2016,02,25,04,40,3.30
2016,02,25,04,41,3.30
2016,02,25,04,42,3.20
2016,02,25,04,43,3.30
2016,02,25,04,44,3.30
2016,02,25,04,45,3.30
2016,02,25,04,46,3.30
2016,02,25,04,47,3.30
2016,02,25,04,48,3.30
2016,02,25,04,49,3.20
2016,02,25,04,50,3.20
2016,02,25,04,51,3.10
2016,02,25,04,52,3.10
2016,02,25,04,53,3.10
2016,02,25,04,54,3.00
2016,02,25,04,55,3.00
2016,02,25,04,56,3.00
2016,02,25,04,57,2.90
2016,02,25,04,58,3.00
2016,02,25,04,59,3.00
2016,02,25,05,00,3.00
2016,02,25,05,01,3.00
2016,02,25,05,02,3.00
2016,02,25,05,03,3.00
2016,02,25,05,04,3.10
2016,02,25,05,05,3.10
2016,02,25,05,06,3.10
2016,02,25,05,07,3.10
2016,02,25,05,08,3.20
2016,02,25,05,09,3.20
2016,02,25,05,10,3.20
2016,02,25,05,11,3.20
2016,02,25,05,12,3.20
2016,02,25,05,13,3.20
2016,02,25,05,14,3.10
2016,02,25,05,15,3.10
2016,02,25,05,16,3.00
2016,02,25,05,17,3.00
2016,02,25,05,18,2.90
2016,02,25,05,19,2.90
2016,02,25,05,20,2.90
2016,02,25,05,21,2.90
2016,02,25,05,22,2.90
2016,02,25,05,23,3.00
2016,02,25,05,24,3.00
2016,02,25,05,25,3.00
2016,02,25,05,26,3.00
2016,02,25,05,27,3.00
2016,02,25,05,28,3.00
2016,02,25,05,29,2.90
2016,02,25,05,30,2.90
2016,02,25,05,31,2.90
2016,02,25,05,32,2.80
2016,02,25,05,33,2.80
2016,02,25,05,34,2.80
2016,02,25,05,35,2.80
2016,02,25,05,36,2.70
2016,02,25,05,37,2.70
2016,02,25,05,38,2.80
2016,02,25,05,39,2.80
2016,02,25,05,40,2.80
2016,02,25,05,41,2.80
2016,02,25,05,42,2.80
2016,02,25,05,43,2.80
2016,02,25,05,44,2.80
2016,02,25,05,45,2.80
2016,02,25,05,46,2.80
2016,02,25,05,47,2.80
2016,02,25,05,48,2.90
2016,02,25,05,49,2.90
2016,02,25,05,50,2.90
2016,02,25,05,51,2.90
2016,02,25,05,52,2.90
2016,02,25,05,53,2.90
2016,02,25,05,54,2.90
2016,02,25,05,55,3.00
2016,02,25,05,56,3.10
2016,02,25,05,57,3.10
2016,02,25,05,58,3.20
2016,02,25,05,59,3.20
2016,02,25,06,00,3.30
2016,02,25,06,01,3.40
2016,02,25,06,02,3.50
2016,02,25,06,03,3.50
2016,02,25,06,04,3.40
2016,02,25,06,05,3.40
2016,02,25,06,06,3.50
2016,02,25,06,07,3.60
2016,02,25,06,08,3.70
2016,02,25,06,09,3.70
2016,02,25,06,10,3.80
2016,02,25,06,11,3.80
2016,02,25,06,12,3.80
2016,02,25,06,13,3.90
2016,02,25,06,14,3.90
2016,02,25,06,15,3.90
2016,02,25,06,16,3.90
2016,02,25,06,17,3.80
2016,02,25,06,18,3.60
2016,02,25,06,19,3.50
2016,02,25,06,20,3.30
2016,02,25,06,21,3.30
2016,02,25,06,22,3.20
2016,02,25,06,23,3.10
2016,02,25,06,24,3.00
2016,02,25,06,25,3.00
2016,02,25,06,26,2.90
2016,02,25,06,27,2.90
2016,02,25,06,28,2.90
2016,02,25,06,29,2.90
2016,02,25,06,30,2.90
2016,02,25,06,31,2.90
2016,02,25,06,32,2.90
2016,02,25,06,33,2.80
2016,02,25,06,34,2.80
2016,02,25,06,35,2.80
2016,02,25,06,36,2.80
2016,02,25,06,37,2.80
2016,02,25,06,38,2.80
2016,02,25,06,39,2.80
2016,02,25,06,40,2.80
2016,02,25,06,41,2.80
2016,02,25,06,42,2.80
2016,02,25,06,43,2.80
2016,02,25,06,44,2.80
2016,02,25,06,45,2.80
2016,02,25,06,46,2.80
2016,02,25,06,47,2.80
2016,02,25,06,48,2.80
2016,02,25,06,49,2.80
2016,02,25,06,50,2.80
2016,02,25,06,51,2.70
2016,02,25,06,52,2.70
2016,02,25,06,53,2.70
2016,02,25,06,54,2.70
2016,02,25,06,55,2.70
2016,02,25,06,56,2.70
2016,02,25,06,57,2.70
2016,02,25,06,58,2.70
2016,02,25,06,59,2.70
2016,02,25,07,00,2.70
2016,02,25,07,01,2.70
2016,02,25,07,02,2.70
2016,02,25,07,03,2.80
2016,02,25,07,04,2.90
2016,02,25,07,05,2.90
2016,02,25,07,06,3.00
2016,02,25,07,07,3.00
2016,02,25,07,08,3.00
2016,02,25,07,09,3.10
2016,02,25,07,10,3.10
2016,02,25,07,11,3.10
2016,02,25,07,12,3.20
2016,02,25,07,13,3.10
2016,02,25,07,14,3.10
2016,02,25,07,15,3.10
2016,02,25,07,16,3.10
2016,02,25,07,17,3.00
2016,02,25,07,18,3.00
2016,02,25,07,19,2.90
2016,02,25,07,20,2.90
2016,02,25,07,21,2.80
2016,02,25,07,22,2.80
2016,02,25,07,23,2.90
2016,02,25,07,24,2.90
2016,02,25,07,25,2.90
2016,02,25,07,26,3.00
2016,02,25,07,27,3.10
2016,02,25,07,28,3.20
2016,02,25,07,29,3.20
2016,02,25,07,30,3.30
2016,02,25,07,31,3.40
2016,02,25,07,32,3.40
2016,02,25,07,33,3.40
2016,02,25,07,34,3.50
2016,02,25,07,35,3.50
2016,02,25,07,36,3.50
2016,02,25,07,37,3.60
2016,02,25,07,38,3.70
2016,02,25,07,39,3.80
2016,02,25,07,40,3.80
2016,02,25,07,41,3.80
2016,02,25,07,42,3.80
2016,02,25,07,43,3.80
2016,02,25,07,44,3.80
2016,02,25,07,45,3.90
2016,02,25,07,46,3.90
2016,02,25,07,47,4.00
2016,02,25,07,48,4.10
2016,02,25,07,49,4.10
2016,02,25,07,50,4.20
2016,02,25,07,51,4.20
2016,02,25,07,52,4.20
2016,02,25,07,53,4.20
2016,02,25,07,54,4.30
2016,02,25,07,55,4.30
2016,02,25,07,56,4.30
2016,02,25,07,57,4.30
2016,02,25,07,58,4.30
2016,02,25,07,59,4.20
2016,02,25,08,00,4.20
2016,02,25,08,01,4.10
2016,02,25,08,02,4.10
2016,02,25,08,03,4.10
2016,02,25,08,04,4.10
2016,02,25,08,05,4.10
2016,02,25,08,06,4.10
2016,02,25,08,07,4.10
2016,02,25,08,08,4.10
2016,02,25,08,09,4.10
2016,02,25,08,10,4.20
2016,02,25,08,11,4.20
2016,02,25,08,12,4.20
2016,02,25,08,13,4.20
2016,02,25,08,14,4.20
2016,02,25,08,15,4.20
2016,02,25,08,16,4.20
2016,02,25,08,17,4.30
2016,02,25,08,18,4.30
2016,02,25,08,19,4.30
2016,02,25,08,20,4.30
2016,02,25,08,21,4.30
2016,02,25,08,22,4.40
2016,02,25,08,23,4.40
2016,02,25,08,24,4.50
2016,02,25,08,25,4.50
2016,02,25,08,26,4.60
2016,02,25,08,27,4.60
2016,02,25,08,28,4.70
2016,02,25,08,29,4.80
2016,02,25,08,30,4.80
2016,02,25,08,31,4.80
2016,02,25,08,32,4.90
2016,02,25,08,33,4.90
2016,02,25,08,34,4.90
2016,02,25,08,35,4.90
2016,02,25,08,36,4.90
2016,02,25,08,37,5.00
2016,02,25,08,38,5.00
2016,02,25,08,39,5.00
2016,02,25,08,40,5.00
2016,02,25,08,41,5.10
2016,02,25,08,42,5.10
2016,02,25,08,43,5.10
2016,02,25,08,44,5.10
2016,02,25,08,45,5.20
2016,02,25,08,46,5.20
2016,02,25,08,47,5.30
2016,02,25,08,48,5.30
2016,02,25,08,49,5.40
2016,02,25,08,50,5.40
2016,02,25,08,51,5.40
2016,02,25,08,52,5.50
2016,02,25,08,53,5.50
2016,02,25,08,54,5.60
2016,02,25,08,55,5.60
2016,02,25,08,56,5.60
2016,02,25,08,57,5.60
2016,02,25,08,58,5.70
2016,02,25,08,59,5.70
2016,02,25,09,00,5.70
2016,02,25,09,01,5.80
2016,02,25,09,02,5.80
2016,02,25,09,03,5.80
2016,02,25,09,04,5.80
2016,02,25,09,05,5.80
2016,02,25,09,06,5.90
2016,02,25,09,07,5.90
2016,02,25,09,08,6.00
2016,02,25,09,09,6.00
2016,02,25,09,10,6.00
2016,02,25,09,11,6.10
2016,02,25,09,12,6.10
2016,02,25,09,13,6.10
2016,02,25,09,14,6.10
2016,02,25,09,15,6.10
2016,02,25,09,16,6.10
2016,02,25,09,17,6.10
2016,02,25,09,18,6.00
2016,02,25,09,19,6.10
2016,02,25,09,20,6.10
2016,02,25,09,21,6.10
2016,02,25,09,22,6.10
2016,02,25,09,23,6.10
2016,02,25,09,24,6.20
2016,02,25,09,25,6.20
2016,02,25,09,26,6.30
2016,02,25,09,27,6.30
2016,02,25,09,28,6.40
2016,02,25,09,29,6.40
2016,02,25,09,30,6.50
2016,02,25,09,31,6.50
2016,02,25,09,32,6.60
2016,02,25,09,33,6.60
2016,02,25,09,34,6.70
2016,02,25,09,35,6.80
2016,02,25,09,36,6.90
2016,02,25,09,37,6.90
2016,02,25,09,38,7.00
2016,02,25,09,39,7.10
2016,02,25,09,40,7.20
2016,02,25,09,41,7.20
2016,02,25,09,42,7.20
2016,02,25,09,43,7.30
2016,02,25,09,44,7.30
2016,02,25,09,45,7.30
2016,02,25,09,46,7.40
2016,02,25,09,47,7.40
2016,02,25,09,48,7.40
2016,02,25,09,49,7.30
2016,02,25,09,50,7.30
2016,02,25,09,51,7.30
2016,02,25,09,52,7.20
2016,02,25,09,53,7.20
2016,02,25,09,54,7.20
2016,02,25,09,55,7.20
2016,02,25,09,56,7.20
2016,02,25,09,57,7.10
2016,02,25,09,58,7.10
2016,02,25,09,59,7.10
2016,02,25,10,00,7.00
2016,02,25,10,01,7.00
2016,02,25,10,02,7.00
2016,02,25,10,03,6.90
2016,02,25,10,04,6.90
2016,02,25,10,05,6.80
2016,02,25,10,06,6.70
2016,02,25,10,07,6.60
2016,02,25,10,08,6.60
2016,02,25,10,09,6.60
2016,02,25,10,10,6.60
2016,02,25,10,11,6.60
2016,02,25,10,12,6.60
2016,02,25,10,13,6.60
2016,02,25,10,14,6.70
2016,02,25,10,15,6.70
2016,02,25,10,16,6.80
2016,02,25,10,17,6.80
2016,02,25,10,18,6.90
2016,02,25,10,19,6.90
2016,02,25,10,20,7.00
2016,02,25,10,21,7.10
2016,02,25,10,22,7.20
2016,02,25,10,23,7.30
2016,02,25,10,24,7.40
2016,02,25,10,25,7.50
2016,02,25,10,26,7.60
2016,02,25,10,27,7.70
2016,02,25,10,28,7.80
2016,02,25,10,29,7.90
2016,02,25,10,30,8.00
2016,02,25,10,31,8.10
2016,02,25,10,32,8.20
2016,02,25,10,33,8.30
2016,02,25,10,34,8.40
2016,02,25,10,35,8.50
2016,02,25,10,36,8.60
2016,02,25,10,37,8.60
2016,02,25,10,38,8.60
2016,02,25,10,39,8.70
2016,02,25,10,40,8.70
2016,02,25,10,41,8.60
2016,02,25,10,42,8.60
2016,02,25,10,43,8.60
2016,02,25,10,44,8.60
2016,02,25,10,45,8.60
2016,02,25,10,46,8.60
2016,02,25,10,47,8.70
2016,02,25,10,48,8.70
2016,02,25,10,49,8.70
2016,02,25,10,50,8.70
2016,02,25,10,51,8.70
2016,02,25,10,52,8.80
2016,02,25,10,53,8.80
2016,02,25,10,54,8.80
2016,02,25,10,55,8.80
2016,02,25,10,56,8.80
2016,02,25,10,57,8.80
2016,02,25,10,58,8.90
2016,02,25,10,59,9.00
2016,02,25,11,00,9.00
2016,02,25,11,01,9.00
2016,02,25,11,02,8.90
2016,02,25,11,03,9.00
2016,02,25,11,04,9.10
2016,02,25,11,05,9.20
2016,02,25,11,06,9.20
2016,02,25,11,07,9.20
2016,02,25,11,08,9.20
2016,02,25,11,09,9.20
2016,02,25,11,10,9.20
2016,02,25,11,11,9.10
2016,02,25,11,12,9.10
2016,02,25,11,13,9.20
2016,02,25,11,14,9.10
2016,02,25,11,15,9.10
2016,02,25,11,16,9.20
2016,02,25,11,17,9.30
2016,02,25,11,18,9.40
2016,02,25,11,19,9.50
2016,02,25,11,20,9.60
2016,02,25,11,21,9.50
2016,02,25,11,22,9.60
2016,02,25,11,23,9.60
2016,02,25,11,24,9.60
2016,02,25,11,25,9.70
2016,02,25,11,26,9.80
2016,02,25,11,27,9.80
2016,02,25,11,28,9.90
2016,02,25,11,29,9.90
2016,02,25,11,30,9.90
2016,02,25,11,31,9.90
2016,02,25,11,32,9.90
2016,02,25,11,33,9.80
2016,02,25,11,34,9.80
2016,02,25,11,35,9.90
2016,02,25,11,36,10.00
2016,02,25,11,37,10.00
2016,02,25,11,38,9.90
2016,02,25,11,39,9.80
2016,02,25,11,40,9.80
2016,02,25,11,41,9.80
2016,02,25,11,42,9.90
2016,02,25,11,43,9.90
2016,02,25,11,44,9.90
2016,02,25,11,45,10.00
2016,02,25,11,46,10.00
2016,02,25,11,47,10.10
2016,02,25,11,48,10.00
2016,02,25,11,49,10.00
2016,02,25,11,50,10.00
2016,02,25,11,51,10.00
2016,02,25,11,52,10.00
2016,02,25,11,53,10.00
2016,02,25,11,54,10.10
2016,02,25,11,55,10.20
2016,02,25,11,56,10.20
2016,02,25,11,57,10.30
2016,02,25,11,58,10.30
2016,02,25,11,59,10.40
2016,02,25,12,00,10.40
2016,02,25,12,01,10.40
2016,02,25,12,02,10.50
2016,02,25,12,03,10.50
2016,02,25,12,04,10.40
2016,02,25,12,05,10.40
2016,02,25,12,06,10.30
2016,02,25,12,07,10.30
2016,02,25,12,08,10.40
2016,02,25,12,09,10.40
2016,02,25,12,10,10.30
2016,02,25,12,11,10.40
2016,02,25,12,12,10.40
2016,02,25,12,13,10.30
2016,02,25,12,14,10.30
2016,02,25,12,15,10.10
2016,02,25,12,16,10.10
2016,02,25,12,17,10.10
2016,02,25,12,18,10.10
2016,02,25,12,19,10.10
2016,02,25,12,20,10.10
2016,02,25,12,21,10.10
2016,02,25,12,22,10.20
2016,02,25,12,23,10.20
2016,02,25,12,24,10.20
2016,02,25,12,25,10.20
2016,02,25,12,26,10.30
2016,02,25,12,27,10.30
2016,02,25,12,28,10.30
2016,02,25,12,29,10.40
2016,02,25,12,30,10.40
2016,02,25,12,31,10.30
2016,02,25,12,32,10.30
2016,02,25,12,33,10.30
2016,02,25,12,34,10.30
2016,02,25,12,35,10.30
2016,02,25,12,36,10.40
2016,02,25,12,37,10.50
2016,02,25,12,38,10.60
2016,02,25,12,39,10.60
2016,02,25,12,40,10.60
2016,02,25,12,41,10.60
2016,02,25,12,42,10.60
2016,02,25,12,43,10.60
2016,02,25,12,44,10.70
2016,02,25,12,45,10.70
2016,02,25,12,46,10.70
2016,02,25,12,47,10.70
2016,02,25,12,48,10.70
2016,02,25,12,49,10.70
2016,02,25,12,50,10.70
2016,02,25,12,51,10.80
2016,02,25,12,52,10.80
2016,02,25,12,53,11.00
2016,02,25,12,54,11.10
2016,02,25,12,55,11.10
2016,02,25,12,56,11.10
2016,02,25,12,57,11.10
2016,02,25,12,58,11.10
2016,02,25,12,59,11.00
2016,02,25,13,00,11.00
2016,02,25,13,01,10.90
2016,02,25,13,02,10.80
2016,02,25,13,03,10.80
2016,02,25,13,04,10.70
2016,02,25,13,05,10.70
2016,02,25,13,06,10.70
2016,02,25,13,07,10.70
2016,02,25,13,08,10.80
2016,02,25,13,09,10.80
2016,02,25,13,10,10.70
2016,02,25,13,11,10.70
2016,02,25,13,12,10.70
2016,02,25,13,13,10.70
2016,02,25,13,14,10.70
2016,02,25,13,15,10.70
2016,02,25,13,16,10.80
2016,02,25,13,17,10.90
2016,02,25,13,18,10.90
2016,02,25,13,19,10.90
2016,02,25,13,20,10.90
2016,02,25,13,21,10.90
2016,02,25,13,22,10.80
2016,02,25,13,23,10.80
2016,02,25,13,24,10.80
2016,02,25,13,25,10.80
2016,02,25,13,26,10.80
2016,02,25,13,27,10.80
2016,02,25,13,28,10.80
2016,02,25,13,29,10.80
2016,02,25,13,30,10.70
2016,02,25,13,31,10.70
2016,02,25,13,32,10.70
2016,02,25,13,33,10.70
2016,02,25,13,34,10.80
2016,02,25,13,35,10.90
2016,02,25,13,36,10.90
2016,02,25,13,37,10.90
2016,02,25,13,38,10.90
2016,02,25,13,39,11.00
2016,02,25,13,40,11.00
2016,02,25,13,41,11.00
2016,02,25,13,42,11.00
2016,02,25,13,43,11.00
2016,02,25,13,44,11.00
2016,02,25,13,45,11.10
2016,02,25,13,46,11.20
2016,02,25,13,47,11.20
2016,02,25,13,48,11.30
2016,02,25,13,49,11.30
2016,02,25,13,50,11.30
2016,02,25,13,51,11.40
2016,02,25,13,52,11.50
2016,02,25,13,53,11.50
2016,02,25,13,54,11.60
2016,02,25,13,55,11.60
2016,02,25,13,56,11.70
2016,02,25,13,57,11.60
2016,02,25,13,58,11.60
2016,02,25,13,59,11.50
2016,02,25,14,00,11.50
2016,02,25,14,01,11.50
2016,02,25,14,02,11.60
2016,02,25,14,03,11.60
2016,02,25,14,04,11.60
2016,02,25,14,05,11.60
2016,02,25,14,06,11.60
2016,02,25,14,07,11.60
2016,02,25,14,08,11.60
2016,02,25,14,09,11.60
2016,02,25,14,10,11.60
2016,02,25,14,11,11.60
2016,02,25,14,12,11.60
2016,02,25,14,13,11.60
2016,02,25,14,14,11.50
2016,02,25,14,15,11.50
2016,02,25,14,16,11.50
2016,02,25,14,17,11.60
2016,02,25,14,18,11.60
2016,02,25,14,19,11.70
2016,02,25,14,20,11.70
2016,02,25,14,21,11.80
2016,02,25,14,22,11.80
2016,02,25,14,23,11.80
2016,02,25,14,24,11.80
2016,02,25,14,25,11.80
2016,02,25,14,26,11.80
2016,02,25,14,27,11.80
2016,02,25,14,28,11.80
2016,02,25,14,29,11.70
2016,02,25,14,30,11.80
2016,02,25,14,31,11.70
2016,02,25,14,32,11.70
2016,02,25,14,33,11.70
2016,02,25,14,34,11.70
2016,02,25,14,35,11.70
2016,02,25,14,36,11.70
2016,02,25,14,37,11.70
2016,02,25,14,38,11.80
2016,02,25,14,39,11.80
2016,02,25,14,40,11.80
2016,02,25,14,41,11.80
2016,02,25,14,42,11.70
2016,02,25,14,43,11.70
2016,02,25,14,44,11.70
2016,02,25,14,45,11.80
2016,02,25,14,46,11.80
2016,02,25,14,47,11.80
2016,02,25,14,48,11.70
2016,02,25,14,49,11.70
2016,02,25,14,50,11.70
2016,02,25,14,51,11.70
2016,02,25,14,52,11.70
2016,02,25,14,53,11.80
2016,02,25,14,54,11.70
2016,02,25,14,55,11.70
2016,02,25,14,56,11.70
2016,02,25,14,57,11.80
2016,02,25,14,58,11.80
2016,02,25,14,59,11.90
2016,02,25,15,00,11.90
2016,02,25,15,01,12.00
2016,02,25,15,02,12.00
2016,02,25,15,03,12.00
2016,02,25,15,04,11.90
2016,02,25,15,05,11.90
2016,02,25,15,06,11.80
2016,02,25,15,07,11.80
2016,02,25,15,08,11.80
2016,02,25,15,09,11.80
2016,02,25,15,10,11.70
2016,02,25,15,11,11.70
2016,02,25,15,12,11.70
2016,02,25,15,13,11.70
2016,02,25,15,14,11.70
2016,02,25,15,15,11.70
2016,02,25,15,16,11.70
2016,02,25,15,17,11.70
2016,02,25,15,18,11.70
2016,02,25,15,19,11.70
2016,02,25,15,20,11.70
2016,02,25,15,21,11.70
2016,02,25,15,22,11.70
2016,02,25,15,23,11.70
2016,02,25,15,24,11.70
2016,02,25,15,25,11.70
2016,02,25,15,26,11.70
2016,02,25,15,27,11.80
2016,02,25,15,28,11.80
2016,02,25,15,29,11.80
2016,02,25,15,30,11.80
2016,02,25,15,31,11.90
2016,02,25,15,32,11.90
2016,02,25,15,33,11.90
2016,02,25,15,34,12.00
2016,02,25,15,35,12.10
2016,02,25,15,36,12.10
2016,02,25,15,37,12.10
2016,02,25,15,38,12.10
2016,02,25,15,39,12.10
2016,02,25,15,40,12.10
2016,02,25,15,41,12.10
2016,02,25,15,42,12.00
2016,02,25,15,43,12.00
2016,02,25,15,44,11.90
2016,02,25,15,45,11.90
2016,02,25,15,46,11.90
2016,02,25,15,47,11.80
2016,02,25,15,48,11.80
2016,02,25,15,49,11.80
2016,02,25,15,50,11.80
2016,02,25,15,51,11.80
2016,02,25,15,52,11.80
2016,02,25,15,53,11.80
2016,02,25,15,54,11.80
2016,02,25,15,55,11.80
2016,02,25,15,56,11.80
2016,02,25,15,57,11.90
2016,02,25,15,58,11.80
2016,02,25,15,59,11.80
2016,02,25,16,00,11.80
2016,02,25,16,01,11.80
2016,02,25,16,02,11.80
2016,02,25,16,03,11.80
2016,02,25,16,04,11.90
2016,02,25,16,05,11.90
2016,02,25,16,06,11.90
2016,02,25,16,07,11.90
2016,02,25,16,08,11.90
2016,02,25,16,09,11.90
2016,02,25,16,10,12.00
2016,02,25,16,11,12.00
2016,02,25,16,12,12.00
2016,02,25,16,13,12.00
2016,02,25,16,14,12.00
2016,02,25,16,15,12.00
2016,02,25,16,16,12.00
2016,02,25,16,17,12.00
2016,02,25,16,18,12.00
2016,02,25,16,19,12.00
2016,02,25,16,20,12.10
2016,02,25,16,21,12.10
2016,02,25,16,22,12.10
2016,02,25,16,23,12.10
2016,02,25,16,24,12.10
2016,02,25,16,25,12.10
2016,02,25,16,26,12.10
2016,02,25,16,27,12.10
2016,02,25,16,28,12.10
2016,02,25,16,29,12.10
2016,02,25,16,30,12.10
2016,02,25,16,31,12.10
2016,02,25,16,32,12.10
2016,02,25,16,33,12.10
2016,02,25,16,34,12.10
2016,02,25,16,35,12.10
2016,02,25,16,36,12.20
2016,02,25,16,37,12.20
2016,02,25,16,38,12.10
2016,02,25,16,39,12.10
2016,02,25,16,40,12.10
2016,02,25,16,41,12.10
2016,02,25,16,42,12.10
2016,02,25,16,43,12.10
2016,02,25,16,44,12.00
2016,02,25,16,45,12.00
2016,02,25,16,46,11.90
2016,02,25,16,47,11.90
2016,02,25,16,48,11.90
2016,02,25,16,49,11.90
2016,02,25,16,50,11.80
2016,02,25,16,51,11.80
2016,02,25,16,52,11.80
2016,02,25,16,53,11.80
2016,02,25,16,54,11.80
2016,02,25,16,55,11.80
2016,02,25,16,56,11.80
2016,02,25,16,57,11.80
2016,02,25,16,58,11.80
2016,02,25,16,59,11.70
2016,02,25,17,00,11.70
2016,02,25,17,01,11.70
2016,02,25,17,02,11.60
2016,02,25,17,03,11.60
2016,02,25,17,04,11.60
2016,02,25,17,05,11.50
2016,02,25,17,06,11.50
2016,02,25,17,07,11.40
2016,02,25,17,08,11.40
2016,02,25,17,09,11.30
2016,02,25,17,10,11.30
2016,02,25,17,11,11.20
2016,02,25,17,12,11.10
2016,02,25,17,13,11.10
2016,02,25,17,14,11.00
2016,02,25,17,15,10.90
2016,02,25,17,16,10.80
2016,02,25,17,17,10.70
2016,02,25,17,18,10.60
2016,02,25,17,19,10.60
2016,02,25,17,20,10.50
2016,02,25,17,21,10.40
2016,02,25,17,22,10.30
2016,02,25,17,23,10.30
2016,02,25,17,24,10.20
2016,02,25,17,25,10.10
2016,02,25,17,26,10.10
2016,02,25,17,27,10.00
2016,02,25,17,28,9.90
2016,02,25,17,29,9.90
2016,02,25,17,30,9.80
2016,02,25,17,31,9.80
2016,02,25,17,32,9.70
2016,02,25,17,33,9.60
2016,02,25,17,34,9.60
2016,02,25,17,35,9.60
2016,02,25,17,36,9.60
2016,02,25,17,37,9.50
2016,02,25,17,38,9.50
2016,02,25,17,39,9.40
2016,02,25,17,40,9.40
2016,02,25,17,41,9.40
2016,02,25,17,42,9.30
2016,02,25,17,43,9.30
2016,02,25,17,44,9.30
2016,02,25,17,45,9.20
2016,02,25,17,46,9.20
2016,02,25,17,47,9.10
2016,02,25,17,48,9.00
2016,02,25,17,49,9.00
2016,02,25,17,50,8.90
2016,02,25,17,51,8.90